World > North America > United States > Mississippi > Pontotoc  

Pontotoc, MS Hourly Weather Updates

Feedback E-mail the Weather

Quick Clicks

Pontotoc, MS Weather Maps

°F °C°F °C
Pontotoc Weather Map
UTC Time: 5/24/2024, 12:51
Your Time:

Pontotoc, MS Regional Weather

Expires:202405241300;;779654
ASUS44 KJAN 241210
RWRMS 

MISSISSIPPI HOURLY WEATHER ROUNDUP
NATIONAL WEATHER SERVICE JACKSON MS
700 AM CDT FRI MAY 24 2024

NOTE: "FAIR: INDICATES FEW OR NO CLOUDS BELOW 12,000 FEET WITH NO
SIGNIFICANT WEATHER AND/OR OBSTRUCTIONS TO VISIBILITY.


MSZ003>006-009-014>017-022>024-029>033-037>039-241300-
NORTHEAST MISSISSIPPI
  
CITY           SKY/WX    TMP DP  RH WIND       PRES   REMARKS
ABERDEEN       PTSUNNY   72  72 100 CALM      29.90R                  
COLUMBUS AFB   PTSUNNY   73  69  89 CALM      29.85S                  
6HR MIN TEMP:  69; 6HR MAX TEMP:  73;                                

CORINTH        CLOUDY    70  68  94 SE7       29.86S                  
GOLDN TRIANGLE PTSUNNY   71  69  93 S5        29.90R                  
IUKA             N/A     70  70  99 SE3       29.89S                  
LOUISVILLE     CLOUDY    73  72  94 CALM      29.94R                  
STARKVILLE     PTSUNNY   70  72 100 CALM      29.88R                  
TUPELO         PTSUNNY   72  69  90 S8        29.86F                  
6HR MIN TEMP:  70; 6HR MAX TEMP:  73; 6HR PCP: TRACE;                

$$


SKY/WX - Weather  TMP - Temperature  DP - Dew Point  RH - Humidity
WIND - Wind Direction/Speed PRES - Barometric Pressure VSB - Visibility
WCI - Wind Chill Index E13G22 Wind - East Wind 13 mph/Gusts of 22 mph

Trending Headlines

Trending Entertainment Headlines

Pontotoc Radar Loop

Use the map search tool if you want to place a location marker on the radar map...

Pontotoc Quick Facts

National Two Day Weather Forecast


E-mail the Pontotoc Weather Forecast

Voice your opinion or tell us about page issues...